This is the latest recevied weather packets stored in our database for station/object N8DMH-13. If no packets are shown the sender has not sent any weather packets the latest 10 day(s).
| Time | Temp. | Humidity | Pressure | Rain* | Wind** | Luminosity | Snow |
|---|---|---|---|---|---|---|---|
| 1777931743 | 22.22° C | 39% | 993.7 hPa | 0 mm | - | - | - |
| 1777931443 | 22.22° C | 37% | 993.1 hPa | 0 mm | - | - | - |
| 1777931113 | 22.78° C | 35% | 993.4 hPa | 0 mm | - | - | - |
| 1777930783 | 22.78° C | 34% | 993.4 hPa | 0 mm | - | - | - |
| 1777930482 | 22.78° C | 35% | 993.5 hPa | 0 mm | - | - | - |
| 1777930153 | 22.22° C | 36% | 993.8 hPa | 0 mm | - | - | - |
| 1777929852 | 22.78° C | 35% | 993.8 hPa | 0 mm | - | - | - |
| 1777929522 | 22.78° C | 33% | 993.6 hPa | 0 mm | - | - | - |
| 1777929192 | 23.33° C | 32% | 993.4 hPa | 0 mm | - | - | - |
| 1777928892 | 23.33° C | 32% | 993.2 hPa | 0 mm | - | - | - |
| 1777928562 | 23.33° C | 33% | 993.2 hPa | 0 mm | - | - | - |
| 1777928232 | 23.89° C | 31% | 993.1 hPa | 0 mm | - | - | - |
| 1777927932 | 23.89° C | 31% | 993.3 hPa | 0 mm | - | - | - |
| 1777927603 | 24.44° C | 31% | 993.2 hPa | 0 mm | - | - | - |
| 1777927302 | 24.44° C | 31% | 993.2 hPa | 0 mm | - | - | - |
| 1777926971 | 24.44° C | 30% | 993.2 hPa | 0 mm | - | - | - |
| 1777926641 | 24.44° C | 31% | 993.3 hPa | 0 mm | - | - | - |
| 1777926341 | 24.44° C | 32% | 993.3 hPa | 0 mm | - | - | - |
| 1777926041 | 23.89° C | 31% | 993.3 hPa | 0 mm | - | - | - |
| 1777925711 | 23.89° C | 31% | 993.4 hPa | 0 mm | - | - | - |
| 1777925412 | 23.89° C | 31% | 993.5 hPa | 0 mm | - | - | - |
| 1777925111 | 23.89° C | 32% | 993.4 hPa | 0 mm | - | - | - |
| 1777924811 | 23.89° C | 33% | 993.5 hPa | 0 mm | - | - | - |
| 1777924510 | 24.44° C | 30% | 993.4 hPa | 0 mm | - | - | - |
| 1777924180 | 24.44° C | 31% | 993.3 hPa | 0 mm | - | - | - |
* Rain latest hour (hover to see other rain measurements)
** Current wind speed in m/s (hover to see current wind gust speed)